Regional Weather Roundup
Issued by NWS

Home | Current Version | Previous Version | Graphics & Text | Print | Product List | Glossary On
Versions: 1 2 3 4 5 6 7 8 9 10 11 12 13 14 15 16 17 18 19 20 21 22 23 24 25 26 27 28 29 30 31 32 33 34 35 36 37 38 39 40 41 42 43 44 45 46 47 48 49 50
389
ASUS43 KFSD 211310
RWRSD

WEATHER ROUNDUP FOR SOUTH DAKOTA
NATIONAL WEATHER SERVICE SIOUX FALLS SD
800 AM CDT MON MAY 21 2018

NOTE: "FAIR" INDICATES FEW OR NO CLOUDS BELOW 12,000 FEET WITH NO
SIGNIFICANT WEATHER AND/OR OBSTRUCTIONS TO VISIBILITY.


SDZ001>005-009-010-012>017-211400-
NORTHWEST AND NORTH CENTRAL SOUTH DAKOTA

CITY           SKY/WX    TMP DP  RH WIND       PRES   REMARKS
BUFFALO          N/A     51  40  65 SE9       29.92S
FAITH            N/A     48  41  76 SE10      30.02S
MOBRIDGE       SUNNY     57  45  64 W3        30.01R
$$

SDZ012>016-024>037-041>051-057-063-072>074-211400-
SOUTHWEST AND SOUTH CENTRAL SOUTH DAKOTA

CITY           SKY/WX    TMP DP  RH WIND       PRES   REMARKS
RAPID CTY ARPT SUNNY     44  41  89 SE9       29.99F
PIERRE         MOSUNNY   52  45  77 S5        30.03R
CUSTER         SUNNY     47  40  76 VRB3      30.04S
PHILIP         SUNNY     44  43  96 E5        30.03F
PINE RIDGE     SUNNY     51  45  79 CALM      30.01F
SPEARFISH      FAIR      50  43  76 CALM      29.98
WINNER         FAIR      52  47  83 SW3       30.04F
$$

SDZ004>011-016>023-039-040-211400-
NORTHEAST SOUTH DAKOTA

CITY           SKY/WX    TMP DP  RH WIND       PRES   REMARKS
ABERDEEN       CLOUDY    58  54  86 E7        30.05S
WATERTOWN      CLOUDY    55  55 100 S3        30.05R
BROOKINGS      CLOUDY    55  54  96 SE8       30.05S FOG
SISSETON         N/A     56  44  64 CALM      30.05S
$$

SDZ017-020-022-023-036>040-048>070-211400-
SOUTHEAST SOUTH DAKOTA

CITY           SKY/WX    TMP DP  RH WIND       PRES   REMARKS
SIOUX FALLS    CLOUDY    56  55  97 E6        30.04S FOG
HURON          CLOUDY    56  53  90 CALM      30.04R
CHAMBERLAIN    PTSUNNY   56  55  93 S6        30.05S
MITCHELL       CLOUDY    55  53  93 S3        30.05S FOG
YANKTON        CLOUDY    54  54 100 W3        30.06R FOG
$$

ABBREVIATIONS USED IN REMARKS
   TC - TEMPERATURE IN CELSIUS
  WCI - WIND CHILL INDEX
   HX - HEAT INDEX
  VSB - VISIBILITY





USA.gov is the U.S. government's official web portal to all federal, state and local government web resources and services.